Weather reports worldwide

Advertisment
Santander/Parayas, Spain (8021): temperature & dewpoint: 17.08.2019 14:00:00 - 23.08.2019 14:00:00 (CEST)Santander/Parayas, Spain (8021): wind speed: 17.08.2019 14:00:00 - 23.08.2019 14:00:00 (CEST)Santander/Parayas, Spain (8021): wind direction: 17.08.2019 14:00:00 - 23.08.2019 14:00:00 (CEST)Santander/Parayas, Spain (8021): reduced air pressure: 17.08.2019 14:00:00 - 23.08.2019 14:00:00 (CEST)Santander/Parayas, Spain (8021): visibility: 17.08.2019 14:00:00 - 23.08.2019 14:00:00 (CEST)
Date & Time tt [°C] td [°C] ff [km/h] ff [kn] dd ppp [hPa] vv [km]
23.08.2019 14:00:00 - - - - - - -
23.08.2019 13:00:00 24,5 14,9 9 5 NE 1018,0 -
23.08.2019 12:00:00 23,1 15,0 9 5 ENE 1018,3 -
23.08.2019 11:00:00 22,3 15,6 4 2 E 1018,7 30
23.08.2019 10:00:00 19,7 14,5 4 2 SE 1018,9 -
23.08.2019 09:00:00 16,7 14,5 2 1 SSE 1019,1 -
23.08.2019 08:00:00 13,3 12,8 2 1 SE 1019,1 20
23.08.2019 07:00:00 12,6 12,1 0 0 N 1019,1 -
23.08.2019 06:00:00 12,4 11,5 2 1 SSE 1019,5 -
23.08.2019 05:00:00 14,1 13,1 4 2 ESE 1019,8 -
23.08.2019 04:00:00 13,8 12,7 0 0 N 1020,0 -
23.08.2019 03:00:00 14,3 12,5 4 2 S 1020,1 -
23.08.2019 02:00:00 15,7 13,3 4 2 WSW 1020,6 -
23.08.2019 01:00:00 17,2 13,5 8 4 ESE 1020,8 -
23.08.2019 00:00:00 18,6 15,8 9 5 E 1021,4 -
22.08.2019 23:00:00 19,6 16,6 9 5 ENE 1021,6 35
22.08.2019 22:00:00 20,3 17,1 11 6 E 1021,5 -
22.08.2019 21:00:00 22,4 17,5 21 11 ENE 1021,2 -
22.08.2019 20:00:00 23,9 17,4 22 12 ENE 1020,8 35
22.08.2019 19:00:00 25,0 15,2 22 12 ENE 1020,8 -
22.08.2019 18:00:00 24,6 19,5 22 12 NE 1021,4 -
22.08.2019 17:00:00 24,8 20,4 26 14 NE 1021,5 35
22.08.2019 16:00:00 24,5 18,9 26 14 NE 1022,0 -
22.08.2019 15:00:00 25,2 19,2 24 13 NE 1022,6 -
22.08.2019 14:00:00 24,8 18,2 21 11 NE 1023,1 35
22.08.2019 13:00:00 24,6 18,4 13 7 NE 1023,6 -
22.08.2019 12:00:00 23,6 17,8 9 5 NE 1024,0 -
22.08.2019 11:00:00 22,9 17,2 8 4 NE 1023,9 30
22.08.2019 10:00:00 20,4 15,2 4 2 S 1024,1 -
22.08.2019 09:00:00 17,3 14,9 4 2 S 1023,9 -
22.08.2019 08:00:00 14,4 13,6 2 1 SSW 1023,4 20
22.08.2019 07:00:00 13,8 12,8 0 0 N 1023,1 -
22.08.2019 06:00:00 14,6 13,6 4 2 SE 1022,9 -
22.08.2019 05:00:00 14,9 13,8 4 2 SE 1023,1 -
22.08.2019 04:00:00 15,2 14,2 4 2 SSW 1023,2 -
22.08.2019 03:00:00 15,4 14,6 4 2 S 1023,4 -
22.08.2019 02:00:00 15,8 15,0 4 2 S 1023,9 -
22.08.2019 01:00:00 15,9 14,8 4 2 SSW 1024,3 -
22.08.2019 00:00:00 17,6 16,3 5 3 SSW 1024,2 -
21.08.2019 23:00:00 18,2 16,2 0 0 N 1024,4 30
21.08.2019 22:00:00 20,8 17,4 9 5 E 1023,8 -
21.08.2019 21:00:00 21,9 18,5 13 7 ENE 1023,1 -
21.08.2019 20:00:00 22,8 18,2 15 8 NE 1022,6 40
21.08.2019 19:00:00 23,5 17,3 18 10 NE 1022,1 -
21.08.2019 18:00:00 23,6 17,9 22 12 NE 1022,0 -
21.08.2019 17:00:00 23,5 18,3 22 12 NE 1022,0 40
21.08.2019 16:00:00 23,6 17,5 24 13 NE 1021,8 -
21.08.2019 15:00:00 23,7 17,3 24 13 NE 1021,9 -
21.08.2019 14:00:00 23,8 17,2 22 12 NE 1022,0 30
21.08.2019 13:00:00 23,6 16,6 21 11 NE 1022,5 -
21.08.2019 12:00:00 23,3 17,1 18 10 NE 1022,6 -
21.08.2019 11:00:00 22,6 16,2 18 10 ENE 1022,5 30
21.08.2019 10:00:00 22,1 16,8 4 2 E 1022,7 -
21.08.2019 09:00:00 18,0 15,8 5 3 SW 1022,8 -
21.08.2019 08:00:00 15,9 14,4 0 0 N 1022,8 25
21.08.2019 07:00:00 16,7 14,7 8 4 S 1022,8 -
21.08.2019 06:00:00 17,4 15,4 5 3 E 1023,1 -
21.08.2019 05:00:00 17,4 15,4 4 2 ESE 1023,5 -
21.08.2019 04:00:00 17,4 15,6 0 0 N 1023,9 -
21.08.2019 03:00:00 17,2 15,5 0 0 N 1024,6 -
21.08.2019 02:00:00 16,2 14,9 0 0 N 1024,8 -
21.08.2019 01:00:00 15,9 14,1 8 4 ESE 1025,2 -
21.08.2019 00:00:00 16,9 14,5 5 3 ESE 1025,4 -
20.08.2019 23:00:00 17,5 14,6 9 5 E 1025,6 25
20.08.2019 22:00:00 19,6 14,8 16 9 ENE 1025,1 -
20.08.2019 21:00:00 20,4 14,5 21 11 ENE 1025,2 -
20.08.2019 20:00:00 21,6 14,7 22 12 ENE 1025,0 40
20.08.2019 19:00:00 22,4 15,2 24 13 ENE 1024,5 -
20.08.2019 18:00:00 22,8 15,3 22 12 NE 1024,5 -
20.08.2019 17:00:00 22,7 15,0 22 12 NE 1024,7 40
20.08.2019 16:00:00 23,2 14,9 18 10 NE 1024,9 -
20.08.2019 15:00:00 23,4 16,7 18 10 NE 1025,1 -
20.08.2019 14:00:00 21,5 15,2 18 10 NE 1025,1 30
20.08.2019 13:00:00 21,8 15,6 11 6 ENE 1025,2 -
20.08.2019 12:00:00 22,3 17,3 4 2 ESE 1025,0 -
20.08.2019 11:00:00 19,6 17,4 5 3 S 1024,7 25
20.08.2019 10:00:00 17,9 16,6 8 4 SW 1024,3 -
20.08.2019 09:00:00 17,2 16,6 5 3 SW 1023,9 -
20.08.2019 08:00:00 16,7 16,2 5 3 S 1023,4 15
20.08.2019 07:00:00 16,7 16,1 9 5 WSW 1022,9 -
20.08.2019 06:00:00 16,6 16,0 4 2 SSW 1022,2 -
20.08.2019 05:00:00 16,6 16,0 8 4 SW 1022,3 -
20.08.2019 04:00:00 16,6 16,0 5 3 W 1022,3 -
20.08.2019 03:00:00 16,7 15,9 9 5 SW 1022,2 -
20.08.2019 02:00:00 17,5 15,5 5 3 SSW 1022,6 -
20.08.2019 01:00:00 18,1 15,7 5 3 NNW 1022,7 -
20.08.2019 00:00:00 18,0 15,1 0 0 N 1022,4 -
19.08.2019 23:00:00 17,7 15,3 15 8 ESE 1022,5 30
19.08.2019 22:00:00 19,2 15,9 16 9 E 1022,1 -
19.08.2019 21:00:00 19,8 15,0 13 7 N 1021,9 -
19.08.2019 20:00:00 20,7 14,1 9 5 NNE 1021,6 25
19.08.2019 19:00:00 20,9 14,5 9 5 NNE 1021,5 -
19.08.2019 18:00:00 20,9 14,1 11 6 N 1021,4 -
19.08.2019 17:00:00 20,7 14,4 15 8 NE 1021,5 25
19.08.2019 16:00:00 21,3 14,9 9 5 ENE 1021,6 -
19.08.2019 15:00:00 20,7 14,0 8 4 ENE 1021,9 -
19.08.2019 14:00:00 20,4 13,9 5 3 N 1021,8 25
19.08.2019 13:00:00 20,2 15,5 8 4 NNE 1021,7 -
19.08.2019 12:00:00 19,8 14,6 5 3 SE 1021,5 -
19.08.2019 11:00:00 19,0 16,1 8 4 S 1021,3 25
19.08.2019 10:00:00 17,3 15,8 9 5 SSW 1021,2 -
19.08.2019 09:00:00 16,3 15,5 9 5 SW 1021,2 -
19.08.2019 08:00:00 15,7 15,2 11 6 SSW 1021,1 20
19.08.2019 07:00:00 15,9 15,6 8 4 S 1020,7 -
19.08.2019 06:00:00 15,9 15,4 8 4 SSE 1020,8 -
19.08.2019 05:00:00 16,3 15,7 5 3 SSW 1020,9 -
19.08.2019 04:00:00 16,3 15,7 9 5 S 1020,7 -
19.08.2019 03:00:00 16,1 15,6 13 7 SSW 1020,9 -
19.08.2019 02:00:00 16,3 16,0 9 5 SSW 1021,0 -
19.08.2019 01:00:00 16,6 16,0 8 4 WSW 1021,2 -
19.08.2019 00:00:00 17,2 16,1 11 6 SW 1020,9 -
18.08.2019 23:00:00 17,1 16,3 11 6 SW 1020,6 15
18.08.2019 22:00:00 17,2 16,6 11 6 SSW 1019,8 -
18.08.2019 21:00:00 17,4 16,8 13 7 SSW 1019,1 -
18.08.2019 20:00:00 17,6 16,8 9 5 SW 1018,7 4,0
18.08.2019 19:00:00 17,7 17,2 8 4 W 1018,4 -
18.08.2019 18:00:00 17,9 17,4 11 6 W 1018,1 -
18.08.2019 17:00:00 18,1 17,8 9 5 NNW 1017,6 4,0
18.08.2019 16:00:00 18,4 17,7 11 6 WNW 1017,1 -
18.08.2019 15:00:00 18,9 18,1 16 9 NW 1016,5 -
18.08.2019 14:00:00 20,2 19,4 16 9 NW 1015,8 6
18.08.2019 13:00:00 20,6 19,6 9 5 WNW 1015,4 -
18.08.2019 12:00:00 20,8 19,8 15 8 WNW 1014,9 -
18.08.2019 11:00:00 21,5 19,8 16 9 NW 1014,1 -
18.08.2019 10:00:00 23,3 20,1 9 5 W 1013,4 -
18.08.2019 09:00:00 22,1 19,1 8 4 WSW 1012,5 -
18.08.2019 08:00:00 21,3 19,2 8 4 SW 1011,9 20
18.08.2019 07:00:00 20,0 18,8 9 5 SW 1010,9 -
18.08.2019 06:00:00 18,7 17,7 4 2 SSW 1010,2 -
18.08.2019 05:00:00 18,4 17,7 5 3 W 1010,2 -
18.08.2019 04:00:00 18,3 17,5 5 3 W 1009,9 -
18.08.2019 03:00:00 18,8 17,6 0 0 N 1010,1 -
18.08.2019 02:00:00 19,7 18,0 4 2 S 1010,9 -
18.08.2019 01:00:00 19,9 17,9 4 2 S 1011,5 -
18.08.2019 00:00:00 21,9 18,9 8 4 E 1012,0 -
17.08.2019 23:00:00 22,6 19,0 11 6 ENE 1012,5 30
17.08.2019 22:00:00 23,0 18,7 11 6 E 1012,6 -
17.08.2019 21:00:00 24,4 19,0 9 5 E 1012,7 -
17.08.2019 20:00:00 25,2 18,9 11 6 ENE 1013,1 35
17.08.2019 19:00:00 25,8 18,6 15 8 ENE 1013,4 -
17.08.2019 18:00:00 26,4 18,5 15 8 ENE 1013,6 -
17.08.2019 17:00:00 26,6 18,8 15 8 ENE 1013,8 35
17.08.2019 16:00:00 27,0 18,5 15 8 ENE 1014,2 -
17.08.2019 15:00:00 27,9 18,5 15 8 N 1014,6 -
17.08.2019 14:00:00 27,6 19,3 15 8 ENE 1015,1 35

tt = temperature
td = dewpoint
ff = wind speed
dd = wind direction
ppp = reduced air pressure
vv = visibility

Next stations